Overview Statistics Trail Chart Weather Telemetry Raw packets
 

This is the latest recevied weather packets stored in our database for station/object DL8GAK-13. If no packets are shown the sender has not sent any weather packets the latest 10 day(s).

<< 52 53 54 55 56 57 58 >>
Time Temp. Humidity Pressure Rain* Wind** Luminosity Snow
1787766498 25° C 65% 1023.6 hPa - - - -
1787765897 25° C 65% 1023.7 hPa - - - -
1787765296 25.56° C 64% 1023.7 hPa - - - -
1787764695 25.56° C 64% 1023.7 hPa - - - -
1787764095 26.11° C 64% 1023.7 hPa - - - -
1787763494 26.11° C 63% 1023.7 hPa - - - -
1787762893 26.11° C 63% 1023.8 hPa - - - -
1787762292 26.67° C 63% 1023.8 hPa - - - -
1787761691 26.67° C 63% 1023.8 hPa - - - -
1787761090 26.67° C 63% 1023.8 hPa - - - -
1787760489 26.67° C 63% 1023.9 hPa - - - -
1787759888 27.22° C 64% 1023.7 hPa - - - -
1787759288 27.22° C 64% 1023.6 hPa - - - -
1787758687 27.78° C 64% 1023.7 hPa - - - -
1787758086 28.33° C 64% 1023.7 hPa - - - -
1787757487 28.89° C 65% 1023.7 hPa - - - -
1787756884 29.44° C 65% 1023.9 hPa - - - -
1787756283 29.44° C 66% 1024.1 hPa - - - -
1787755682 28.89° C 65% 1024.1 hPa - - - -
1787755082 28.89° C 65% 1024.3 hPa - - - -
1787754481 28.33° C 64% 1024.5 hPa - - - -
1787753880 27.78° C 64% 1024.5 hPa - - - -
1787753279 27.22° C 64% 1024.6 hPa - - - -
1787752678 26.67° C 64% 1024.7 hPa - - - -
1787752077 26.67° C 65% 1024.7 hPa - - - -

* Rain since midnight (hover to see other rain measurements)
** Current wind speed in m/s (hover to see current wind gust speed)